Wetbulb
57.04 57.03 56.63 54.56 51.80 50.95 50.55 47.84 45.57 49.97 50.87 45.09 43.92 39.74 39.60 39.94 40.24 41.63 39.94 39.83 38.22 36.90 37.09 35.83 35.57 34.97 37.24 40.35 39.82 36.12 38.56 35.39 30.37 34.26 38.26 37.84 36.72 34.53 34.93 28.99 27.42 29.30 26.77 27.13
56.62 56.67 56.33 54.06 50.00 49.00 48.26 47.73 43.92 50.92 49.73 42.42 40.85 39.73 39.23 40.23 39.35 39.18 38.71 37.72 38.90 39.10 36.20 32.85 35.91 36.63 39.67 40.04 39.20 37.36 38.33 33.31 27.55 32.05 33.28 35.16 32.89 35.22 35.23 34.76 32.33 27.04 24.53 27.87
56.29 56.28 55.89 53.89 49.22 48.01 48.11 45.32 43.56 47.65 46.81 43.91 41.60 39.02 37.60 37.22 40.60 39.47 39.58 38.36 39.04 37.00 35.65 37.60 34.77 35.55 38.71 39.20 39.00 38.32 38.59 34.07 30.55 27.57 31.37 33.60 30.08 32.37 33.77 32.46 27.02 27.85 28.45 30.80
56.60 56.24 55.59 53.87 50.61 47.92 47.52 42.70 42.04 40.41 43.34 42.08 41.01 38.56 37.88 36.66 36.11 39.22 39.64 37.65 37.34 36.22 32.76 34.71 34.31 35.89 36.98 38.58 37.05 37.35 35.88 28.69 31.43 32.27 33.18 32.61 31.15 30.80 31.45 29.51 30.75 26.18 29.23 29.49
56.83 56.16 55.36 53.74 51.05 48.48 49.35 41.03 38.65 40.53 40.33 38.38 37.81 35.45 39.19 36.97 37.19 36.84 36.04 35.24 36.14 37.07 33.90 35.56 32.72 35.04 35.03 34.25 35.64 34.09 34.98 28.06 29.77 25.53 29.57 29.16 26.37 28.60 29.52 30.15 30.35 30.02 30.42 28.92
56.72 55.94 54.95 53.40 50.88 51.80 45.59 40.88 39.72 40.20 36.64 34.36 35.08 37.35 37.86 35.76 36.23 36.86 37.97 36.62 34.57 34.62 36.65 38.26 38.06 38.08 37.34 36.79 33.35 31.54 30.35 28.22 25.95 21.98 26.63 25.73 22.40 26.94 27.71 28.95 30.28 28.88 25.08 29.57
56.42 55.84 54.95 53.62 50.69 52.63 49.57 42.61 40.15 39.25 38.16 33.43 33.91 33.97 34.57 33.02 34.97 32.60 35.83 36.44 34.04 36.73 39.13 39.08 38.02 35.70 34.35 33.91 33.37 34.39 28.91 26.79 25.85 21.30 24.18 16.43 25.67 32.15 31.66 29.30 30.39 30.57 30.26 30.28
56.30 55.88 55.33 54.18 51.40 50.95 46.68 43.41 41.84 39.81 38.15 33.88 31.86 32.47 32.12 33.67 33.66 33.74 35.23 37.80 39.29 38.45 36.83 31.70 30.75 29.73 28.27 28.47 29.29 29.21 30.38 27.34 22.11 19.12 19.91 25.68 24.79 26.82 27.30 25.83 27.06 30.32 28.26 29.44
54.21 54.60 55.23 54.75 52.85 51.36 45.56 43.16 44.11 41.76 37.74 34.86 33.99 31.84 32.90 31.55 31.43 32.58 33.36 36.33 38.31 36.83 32.90 29.86 25.04 25.82 27.88 25.49 24.86 28.16 27.80 28.69 23.48 21.27 16.80 16.52 24.61 27.93 30.25 29.90 22.20 28.44 28.39 28.01
53.78 53.78 53.97 54.66 53.78 51.64 46.36 42.71 44.19 42.08 39.13 37.23 36.23 33.86 32.99 35.72 33.86 32.35 32.59 33.01 32.67 35.47 30.51 26.11 25.44 25.34 27.27 22.43 21.80 21.01 21.99 22.92 20.65 21.06 19.91 24.58 26.23 28.34 31.29 20.96 20.73 28.57 29.02 28.74
53.49 53.72 53.84 54.52 54.23 51.40 46.90 42.23 44.25 43.11 39.71 36.24 36.79 37.93 34.67 33.59 34.21 32.61 33.12 31.15 31.42 30.01 27.07 26.86 27.48 25.43 25.52 23.12 25.74 23.84 23.18 22.03 21.42 22.67 20.03 17.51 28.95 28.26 23.50 25.81 28.94 28.68 28.61 28.09
52.91 53.24 53.53 54.14 53.95 49.94 46.06 40.48 43.92 43.50 40.51 38.67 39.16 39.93 39.63 38.53 38.09 34.66 32.96 31.79 30.76 32.11 28.96 29.07 28.67 24.96 25.52 24.16 21.09 27.40 22.72 27.84 25.66 25.91 24.88 28.09 29.35 28.14 29.70 29.10 27.03 27.67 26.80 27.31
52.54 53.06 53.49 54.19 53.08 49.17 46.92 42.55 42.54 41.27 36.78 35.09 35.43 35.00 38.77 38.21 37.55 39.11 32.73 32.92 33.90 32.72 34.76 31.89 29.81 24.67 27.66 22.51 23.57 25.32 27.43 27.52 25.31 24.32 26.04 26.52 28.61 29.85 30.07 29.31 27.22 27.76 27.34 26.40
52.33 53.21 53.56 53.61 51.02 48.33 45.05 42.46 43.43 41.56 38.64 35.92 32.52 36.12 34.90 35.51 36.76 39.09 38.83 36.18 36.62 35.47 34.98 31.51 29.12 25.61 29.73 25.70 25.20 24.22 25.96 26.00 25.30 24.95 27.97 27.70 28.32 29.39 28.64 27.32 27.58 26.45 26.57 26.01
51.45 52.56 53.07 51.40 48.98 46.01 43.20 41.88 40.39 40.75 39.74 35.18 29.66 32.34 32.95 34.20 35.33 37.10 37.83 36.60 34.44 32.61 30.08 28.92 27.35 30.64 27.99 28.50 26.64 24.62 27.34 25.98 23.14 22.53 25.59 25.07 26.51 28.07 27.71 25.01 24.40 24.99 24.42 24.09
50.58 51.78 50.98 48.89 45.84 45.19 42.19 36.90 41.00 39.41 39.21 32.70 27.80 30.95 30.15 32.81 34.81 34.52 34.17 35.44 34.43 33.46 31.08 29.58 31.13 30.46 28.14 23.77 22.40 25.41 26.67 26.96 26.62 25.14 26.76 25.60 26.57 26.92 27.16 24.11 24.26 24.73 24.44 24.30
50.82 50.93 48.55 46.23 45.64 41.08 37.40 37.17 39.86 39.37 38.04 31.68 25.04 25.59 29.28 32.58 32.55 32.68 32.29 33.04 32.58 32.58 30.68 28.50 28.77 28.16 28.78 25.17 21.07 24.70 26.39 26.55 26.29 26.52 24.80 24.61 25.37 22.88 24.89 24.94 24.68 25.33 25.06 25.40
51.16 48.43 46.53 44.45 43.28 40.78 36.54 38.92 39.24 39.07 33.87 34.67 25.85 24.60 26.18 30.96 27.87 27.29 32.15 30.20 31.42 30.69 29.25 28.79 26.28 27.81 27.48 21.76 25.05 25.32 25.16 25.02 24.76 24.61 24.92 23.84 24.52 24.75 24.28 24.74 24.10 22.64 22.49 23.14
46.99 44.60 42.52 39.29 36.29 33.41 34.95 38.57 37.82 37.46 35.22 29.54 27.11 23.20 22.07 29.35 29.05 30.27 29.69 30.83 24.77 29.82 25.36 25.85 27.12 24.49 20.72 23.54 24.64 24.01 23.32 22.57 22.21 23.28 23.95 23.78 22.27 22.11 22.47 22.43 22.47 21.16 21.26 22.07
43.89 39.04 34.32 30.62 33.85 39.86 38.64 35.10 32.25 33.32 29.98 29.81 26.37 28.42 23.35 28.51 28.07 26.82 26.66 27.87 25.08 21.09 24.97 28.75 23.88 22.97 23.81 23.89 24.16 23.83 22.85 22.16 21.92 19.33 19.88 20.36 19.55 20.04 20.43 20.79 21.83 21.84 21.50 21.51
35.80 31.23 30.13 35.71 37.72 33.55 30.47 25.38 25.67 25.09 23.15 26.01 26.02 26.91 24.05 29.57 25.26 25.33 28.13 24.75 24.57 18.52 22.67 22.20 21.60 20.95 21.31 22.88 22.37 22.54 22.26 21.70 21.50 21.50 21.60 21.69 21.00 20.12 19.94 20.19 21.35 21.63 21.35 20.43
35.42 34.26 35.72 34.36 30.73 27.23 25.13 22.14 20.71 20.54 21.19 23.85 24.38 25.79 27.79 27.63 29.92 26.32 24.97 22.14 21.20 16.89 25.07 21.14 17.82 18.86 21.33 22.04 21.36 21.31 21.45 20.96 20.89 21.61 20.51 20.61 20.36 20.46 19.85 20.24 20.47 20.67 20.75 21.22
34.19 30.52 27.39 28.17 22.70 20.44 20.28 15.49 16.69 16.94 21.66 24.15 24.93 23.25 26.56 26.33 27.42 23.85 23.06 18.87 18.17 23.67 19.44 17.99 18.76 20.54 20.93 20.63 20.81 20.52 20.80 20.53 20.28 19.03 19.60 19.06 18.54 19.55 19.40 18.68 20.17 19.90 19.81 20.67
28.58 25.56 19.25 22.27 17.16 20.64 21.87 22.29 21.62 22.87 26.05 25.52 26.41 23.38 24.46 24.41 22.82 22.39 18.68 20.39 20.70 15.86 14.01 16.09 19.33 19.99 19.88 20.14 19.94 19.30 18.32 18.40 17.66 17.35 15.96 15.05 15.73 16.46 18.36 18.55 18.28 18.57 18.63 19.91
25.70 26.32 18.28 18.11 20.54 21.63 21.61 23.49 23.40 23.61 27.05 25.02 23.31 22.97 24.44 20.86 18.25 20.27 18.62 15.35 14.00 16.28 16.39 18.41 20.22 18.92 17.58 17.70 17.92 17.13 16.76 15.76 14.53 15.29 14.27 12.39 13.70 14.74 15.54 16.70 16.84 18.15 18.97 19.16
24.45 23.16 19.02 21.58 20.92 20.14 22.23 23.12 21.71 24.35 24.55 25.28 25.33 20.30 18.12 15.61 18.11 15.99 15.85 14.99 13.79 16.75 18.86 19.94 19.98 17.74 16.78 15.74 15.63 14.92 14.60 14.01 13.84 14.94 14.54 15.15 12.70 12.24 13.70 14.70 16.96 16.67 18.19 18.13
22.23 20.70 24.94 24.07 24.35 22.33 22.31 23.94 22.43 23.80 24.52 21.48 21.56 16.90 14.55 15.58 15.12 14.56 16.63 16.10 17.28 18.92 19.35 19.93 17.89 16.26 15.83 14.19 14.74 15.92 15.54 15.16 14.53 14.15 14.35 14.60 15.78 13.67 14.94 14.57 17.10 17.62 18.33 18.64
MSLP
1024.85 1024.89 1024.95 1024.97 1024.85 1023.93 1023.45 1023.03 1022.14 1021.14 1020.49 1020.65 1021.00 1021.65 1022.59 1023.36 1023.11 1023.23 1022.76 1022.57 1022.13 1021.79 1021.82 1021.10 1021.28 1021.53 1021.62 1022.07 1022.01 1021.54 1021.34 1020.61 1019.08 1018.06 1018.18 1018.88 1019.09 1018.62 1018.41 1018.54 1018.16 1018.37 1018.65 1017.29
1024.55 1024.66 1024.92 1024.97 1025.05 1024.64 1024.37 1023.47 1022.50 1021.22 1020.98 1021.10 1021.52 1022.44 1022.75 1023.14 1023.30 1023.47 1023.42 1023.07 1023.18 1023.01 1022.52 1022.35 1021.73 1021.97 1022.80 1022.82 1022.50 1022.10 1021.87 1021.03 1019.75 1017.63 1018.98 1019.18 1019.06 1018.88 1018.93 1018.77 1019.27 1018.55 1018.74 1017.91
1024.23 1024.44 1024.73 1024.92 1025.07 1024.86 1024.95 1024.06 1023.06 1022.02 1021.89 1022.61 1022.31 1022.43 1022.67 1023.03 1023.88 1023.75 1023.82 1023.51 1023.69 1023.41 1022.83 1022.82 1022.47 1022.11 1022.98 1023.62 1023.64 1023.89 1023.56 1021.91 1020.77 1019.39 1018.48 1019.18 1019.19 1019.34 1019.59 1019.64 1019.29 1018.57 1018.12 1017.96
1023.81 1024.16 1024.39 1024.62 1025.01 1024.96 1025.16 1024.79 1024.43 1024.41 1023.06 1022.94 1023.16 1023.16 1023.10 1023.12 1023.59 1024.20 1024.20 1023.87 1023.89 1023.79 1023.26 1022.68 1022.72 1022.77 1023.05 1023.22 1024.09 1024.02 1023.69 1022.34 1021.62 1020.62 1020.09 1020.27 1019.76 1019.48 1019.74 1019.64 1019.36 1019.37 1018.73 1018.81
1023.33 1023.77 1024.01 1024.46 1024.88 1024.95 1025.10 1025.55 1025.53 1025.18 1024.35 1024.44 1024.31 1024.14 1023.64 1023.79 1023.83 1024.34 1024.48 1024.67 1024.50 1024.25 1023.78 1023.38 1023.31 1023.31 1023.53 1023.43 1024.03 1024.34 1024.34 1023.05 1022.62 1021.97 1021.11 1020.86 1020.38 1020.15 1019.96 1020.02 1019.93 1019.69 1019.78 1019.66
1022.74 1023.19 1023.55 1024.00 1024.49 1024.71 1025.35 1026.14 1026.16 1025.79 1025.74 1025.38 1025.12 1024.35 1024.19 1024.57 1024.87 1025.15 1025.22 1025.47 1025.66 1024.89 1024.45 1024.32 1024.18 1024.26 1024.54 1024.17 1024.26 1024.37 1024.72 1024.37 1024.11 1022.36 1022.28 1022.03 1020.81 1020.27 1020.32 1020.33 1020.53 1020.93 1020.92 1021.34
1022.12 1022.60 1022.91 1023.30 1023.79 1024.05 1024.79 1025.83 1026.04 1026.49 1026.00 1025.89 1025.35 1024.94 1025.00 1025.56 1025.73 1025.88 1025.99 1026.14 1026.15 1025.80 1025.37 1024.94 1024.31 1024.23 1024.34 1024.83 1024.83 1024.98 1025.10 1025.68 1025.59 1024.01 1023.34 1022.45 1021.76 1021.43 1021.53 1021.31 1021.50 1022.19 1022.49 1022.64
1021.53 1021.88 1022.17 1022.49 1022.98 1023.50 1024.45 1025.16 1025.66 1026.03 1026.01 1025.99 1025.87 1025.78 1025.94 1026.17 1026.82 1026.85 1026.58 1026.06 1025.94 1025.87 1025.68 1025.07 1023.93 1023.89 1024.64 1024.75 1025.57 1026.31 1026.44 1026.52 1026.23 1025.31 1023.96 1021.90 1021.98 1022.38 1022.53 1022.71 1022.69 1023.17 1023.54 1023.60
1021.20 1021.37 1021.57 1021.86 1022.23 1022.86 1024.06 1024.88 1025.16 1025.55 1025.86 1026.08 1026.23 1026.71 1026.89 1027.03 1027.22 1027.43 1026.83 1026.71 1026.55 1026.46 1025.88 1025.65 1025.36 1024.65 1024.57 1025.02 1025.45 1026.19 1026.51 1026.56 1026.62 1025.85 1025.33 1023.51 1022.94 1023.68 1023.84 1023.80 1023.54 1024.45 1024.71 1024.49
1021.15 1021.19 1021.28 1021.60 1021.68 1022.58 1023.53 1024.53 1024.84 1025.21 1025.88 1026.00 1026.27 1026.99 1026.82 1027.33 1027.33 1027.36 1026.87 1026.74 1027.01 1026.74 1025.99 1025.75 1025.49 1025.10 1025.40 1025.63 1025.47 1026.23 1026.73 1026.62 1026.14 1025.78 1025.18 1023.71 1024.03 1024.42 1024.71 1024.89 1025.46 1025.18 1025.38 1025.21
1020.71 1020.91 1021.08 1021.25 1021.35 1022.30 1023.14 1024.46 1024.74 1024.85 1025.62 1026.37 1026.35 1026.54 1026.52 1027.21 1027.04 1027.06 1027.25 1027.28 1027.10 1027.40 1027.00 1026.38 1025.68 1025.78 1025.68 1025.83 1025.27 1025.24 1025.57 1025.55 1025.45 1025.18 1024.79 1024.45 1024.54 1024.62 1025.70 1026.22 1026.29 1026.15 1025.99 1025.86
1020.30 1020.57 1020.84 1021.02 1021.33 1022.13 1023.00 1024.50 1024.95 1025.05 1025.53 1026.38 1026.77 1026.63 1026.69 1026.49 1026.48 1026.82 1027.04 1026.99 1026.87 1027.02 1027.39 1027.12 1026.54 1026.23 1026.33 1025.90 1025.25 1025.59 1025.46 1025.07 1025.36 1024.77 1024.33 1024.80 1025.16 1025.72 1026.56 1027.11 1027.12 1026.95 1026.71 1026.43
1020.13 1020.31 1020.36 1020.76 1021.39 1022.26 1022.84 1024.03 1024.74 1025.15 1026.02 1026.62 1026.81 1026.60 1027.02 1027.07 1026.86 1026.75 1026.90 1027.30 1027.37 1027.75 1028.02 1028.00 1027.51 1026.74 1026.16 1025.57 1024.73 1024.90 1025.11 1025.95 1025.74 1025.41 1025.15 1025.26 1025.64 1026.25 1026.90 1027.53 1027.66 1027.64 1027.37 1027.09
1019.84 1019.97 1020.24 1020.40 1021.21 1022.35 1023.09 1023.75 1024.20 1024.48 1025.39 1025.67 1026.34 1026.64 1026.80 1027.14 1026.93 1026.79 1026.97 1027.25 1027.77 1028.01 1028.46 1028.27 1027.78 1026.93 1026.04 1025.31 1025.40 1025.35 1025.97 1026.51 1025.87 1025.66 1025.45 1025.74 1026.37 1026.85 1027.53 1027.87 1028.07 1028.00 1027.78 1027.48
1019.46 1019.62 1019.72 1020.59 1021.51 1022.69 1023.52 1024.15 1024.48 1024.44 1025.29 1025.41 1026.29 1026.85 1027.39 1027.15 1026.94 1027.11 1027.49 1027.75 1028.18 1027.98 1028.38 1027.89 1027.38 1026.81 1026.86 1026.12 1025.80 1025.14 1026.01 1025.95 1026.13 1026.07 1026.92 1027.05 1027.22 1027.85 1028.23 1028.53 1028.49 1028.25 1027.83 1027.11
1018.89 1019.34 1019.84 1020.61 1021.74 1022.26 1023.45 1024.75 1025.10 1024.93 1024.75 1025.60 1026.68 1027.38 1027.28 1027.34 1027.08 1027.09 1027.39 1027.57 1027.67 1027.53 1028.01 1027.51 1026.87 1027.41 1027.43 1026.59 1025.69 1026.63 1027.15 1027.69 1027.42 1027.44 1027.96 1028.26 1028.39 1028.52 1028.78 1029.12 1028.79 1028.35 1027.91 1027.46
1018.41 1019.18 1020.12 1021.31 1022.06 1022.62 1023.70 1024.30 1024.22 1024.41 1025.03 1025.68 1026.85 1026.97 1027.47 1027.33 1027.52 1027.77 1027.69 1027.72 1027.47 1027.55 1027.58 1027.32 1027.19 1027.11 1027.45 1026.56 1026.18 1027.08 1027.98 1028.73 1028.46 1028.55 1028.78 1028.50 1028.73 1029.14 1029.43 1029.27 1028.90 1028.47 1027.96 1027.40
1018.37 1019.43 1020.75 1022.16 1022.73 1023.59 1024.26 1024.90 1024.82 1024.70 1025.34 1025.92 1026.49 1026.93 1027.58 1027.61 1027.28 1027.36 1027.54 1027.28 1027.67 1027.84 1027.35 1027.59 1027.37 1027.52 1027.42 1026.69 1026.94 1027.88 1028.81 1029.25 1029.18 1029.33 1029.49 1029.65 1029.76 1029.74 1029.60 1029.39 1028.91 1028.40 1027.87 1027.45
1018.76 1020.11 1021.19 1022.34 1023.59 1024.48 1025.35 1025.40 1025.02 1024.89 1025.96 1026.31 1026.60 1026.58 1027.07 1027.66 1027.27 1027.26 1027.68 1027.77 1028.00 1028.18 1027.62 1027.30 1027.42 1026.86 1027.27 1027.35 1027.78 1028.80 1029.67 1029.86 1030.02 1030.00 1029.89 1029.91 1030.10 1030.03 1029.79 1029.42 1029.04 1028.81 1028.26 1027.80
1019.36 1020.39 1021.69 1023.85 1024.83 1024.80 1025.29 1025.58 1025.54 1025.99 1026.49 1026.37 1026.11 1026.42 1026.60 1027.30 1027.39 1027.15 1027.66 1028.27 1027.90 1027.91 1027.54 1027.58 1027.39 1027.05 1028.30 1028.69 1029.23 1029.98 1030.44 1030.70 1030.86 1030.78 1030.57 1030.66 1030.64 1030.43 1030.14 1029.92 1029.66 1029.24 1028.73 1028.11
1019.62 1021.76 1023.86 1024.99 1024.89 1025.22 1025.59 1026.18 1026.51 1026.86 1026.68 1026.41 1026.65 1026.35 1026.55 1027.73 1027.08 1027.04 1027.42 1027.64 1027.96 1027.84 1027.49 1027.59 1027.30 1027.73 1028.71 1029.71 1030.33 1030.80 1031.13 1031.36 1031.50 1031.59 1031.55 1031.47 1031.25 1030.93 1030.52 1030.16 1029.81 1029.31 1028.82 1028.31
1019.96 1021.28 1023.97 1025.11 1025.13 1025.42 1025.99 1026.70 1027.34 1027.09 1026.35 1026.61 1026.78 1026.89 1026.84 1027.83 1027.93 1027.55 1028.23 1028.04 1028.39 1027.95 1027.74 1027.95 1027.84 1029.11 1029.94 1030.48 1030.97 1031.37 1031.64 1031.79 1031.88 1031.90 1031.88 1031.76 1031.53 1031.21 1030.88 1030.45 1029.98 1029.51 1029.00 1028.43
1020.26 1022.36 1024.15 1024.74 1026.20 1026.07 1025.76 1026.27 1026.42 1026.38 1026.24 1027.02 1027.21 1027.47 1027.44 1028.10 1027.96 1028.25 1028.36 1028.19 1028.26 1028.38 1027.93 1027.91 1028.82 1029.91 1030.71 1031.34 1031.66 1031.86 1032.13 1032.26 1032.27 1032.33 1032.30 1032.24 1031.95 1031.56 1031.17 1030.81 1030.39 1029.95 1029.31 1028.69
1021.08 1022.72 1024.68 1024.91 1025.51 1025.03 1024.94 1024.81 1025.34 1026.42 1026.56 1027.34 1027.25 1027.39 1027.71 1028.10 1028.41 1028.60 1028.57 1028.54 1028.65 1028.41 1028.43 1028.33 1029.59 1030.81 1031.58 1032.08 1032.34 1032.44 1032.66 1032.79 1032.81 1032.80 1032.88 1032.75 1032.50 1032.05 1031.61 1031.19 1030.78 1030.18 1029.47 1028.81
1022.19 1022.97 1024.75 1025.21 1025.25 1025.44 1025.89 1025.65 1026.21 1027.13 1027.20 1027.28 1027.69 1028.04 1028.06 1028.44 1028.70 1028.70 1029.03 1029.09 1028.80 1028.70 1028.51 1029.57 1030.87 1031.94 1032.53 1032.79 1032.94 1033.10 1033.17 1033.29 1033.35 1033.37 1033.26 1033.08 1032.85 1032.51 1031.95 1031.44 1030.98 1030.35 1029.67 1029.09
1022.77 1024.27 1025.24 1025.29 1025.53 1026.28 1026.24 1026.32 1026.84 1027.40 1027.48 1027.49 1027.75 1028.25 1028.50 1028.78 1028.82 1029.01 1028.97 1029.15 1029.13 1029.50 1030.05 1031.07 1031.97 1032.65 1033.06 1033.34 1033.47 1033.55 1033.60 1033.63 1033.65 1033.58 1033.50 1033.27 1033.05 1032.61 1032.18 1031.61 1031.02 1030.50 1029.95 1029.42
1024.27 1025.33 1025.19 1025.47 1025.66 1026.41 1026.67 1026.39 1027.50 1028.11 1027.88 1027.82 1028.23 1028.61 1029.01 1029.57 1029.27 1029.57 1029.88 1029.92 1030.40 1030.79 1031.36 1032.01 1032.75 1033.25 1033.48 1033.66 1033.70 1033.66 1033.70 1033.72 1033.68 1033.63 1033.46 1033.21 1032.86 1032.44 1032.01 1031.51 1030.92 1030.45 1030.02 1029.60
Wind_Speed
10 8 6 6 11 17 4 3 4 5 6 3 3 4 4 2 2 1 1 2 2 3 6 6 4 5 4 3 3 5 3 6 7 12 4 3 8 11 9 5 3 3 4 5
10 8 6 3 6 10 4 6 3 2 4 4 4 3 2 1 2 2 3 2 2 2 3 5 3 3 1 2 3 3 2 5 7 4 3 3 4 6 9 8 4 11 10 3
9 9 8 6 2 3 3 3 3 1 3 2 4 2 2 1 1 2 2 1 2 3 4 4 6 4 1 3 4 4 4 9 13 12 15 11 11 9 9 11 10 12 14 18
11 11 10 10 7 1 3 3 2 1 3 3 2 1 1 1 3 3 2 3 5 4 5 7 6 3 8 6 2 4 5 10 14 18 19 18 20 19 18 18 18 17 16 17
13 12 12 12 10 5 0 2 2 2 0 1 3 2 3 3 2 2 2 5 2 6 7 8 16 14 10 10 2 5 3 9 11 15 17 16 19 18 18 17 17 20 19 19
13 12 14 16 15 6 2 1 1 1 2 1 2 3 1 3 3 2 3 2 3 9 10 8 10 10 12 15 11 9 6 6 9 7 5 13 14 9 8 9 5 7 10 5
15 14 15 19 21 11 3 3 3 3 3 4 6 3 3 5 3 1 2 3 2 2 5 10 13 10 12 13 13 10 8 5 5 8 10 6 3 4 3 5 2 1 4 5
14 14 16 20 24 19 3 3 4 4 3 2 2 5 3 2 2 2 6 7 4 1 4 6 8 4 5 5 1 5 8 8 4 5 6 14 4 2 2 4 1 2 5 7
5 5 10 17 24 23 4 2 2 3 5 6 5 3 3 3 3 3 4 1 1 1 2 2 4 4 4 4 4 2 5 9 5 1 4 6 6 2 5 3 5 4 7 11
8 7 8 11 20 23 4 3 3 3 3 3 6 5 5 5 3 1 0 3 4 2 4 5 6 4 1 4 4 5 4 5 11 9 6 8 5 5 4 7 5 6 9 13
8 8 8 10 11 23 5 2 2 3 2 2 5 5 6 4 4 4 4 2 3 4 6 4 4 5 2 3 2 4 7 6 5 5 5 7 5 1 6 6 8 11 12 14
8 8 8 8 11 24 8 3 2 2 2 3 2 1 1 1 2 4 4 2 2 1 3 3 1 3 2 3 3 2 5 4 2 6 2 4 4 4 4 7 10 13 14 16
8 8 7 6 19 22 7 4 5 3 2 2 1 2 3 1 1 2 3 1 3 3 2 0 1 6 2 4 5 3 4 1 5 3 4 1 7 4 1 9 10 13 14 16
10 9 8 13 25 20 9 4 4 3 2 3 4 2 3 1 2 1 5 6 5 5 1 2 3 4 3 3 2 3 4 3 4 8 7 1 5 3 11 13 12 14 15 16
11 11 8 24 23 16 9 4 2 2 2 1 3 3 1 2 2 4 4 6 4 3 3 4 4 3 2 3 3 8 6 5 4 3 5 4 5 10 11 11 15 15 16 19
11 9 24 26 23 19 4 2 1 1 1 4 2 2 2 4 4 6 6 6 4 2 3 3 2 3 3 4 4 4 3 1 3 3 6 7 9 8 7 13 15 16 17 17
10 20 27 26 19 5 3 0 2 7 0 3 3 2 2 3 2 2 3 4 2 3 3 4 5 3 4 4 8 8 4 0 3 3 6 3 3 7 13 13 14 16 16 15
18 28 27 21 22 10 5 4 7 2 4 1 2 3 2 3 3 3 1 3 3 3 3 1 4 2 4 5 5 5 2 2 1 1 4 6 8 10 11 11 13 16 16 17
33 32 24 7 6 3 3 9 7 3 3 2 3 5 3 3 2 2 2 1 3 2 4 3 3 4 6 3 5 4 1 2 3 6 7 5 9 11 12 14 14 15 16 17
32 7 5 4 2 14 8 3 2 2 2 1 2 1 4 3 3 3 4 1 2 2 3 3 4 5 5 5 5 4 3 3 4 5 5 9 11 12 14 14 13 13 14 16
4 4 4 4 5 1 2 2 2 1 2 2 2 0 5 2 4 4 2 2 1 3 2 3 3 2 4 4 4 4 3 3 3 4 6 8 9 11 12 13 14 13 15 15
8 14 8 3 2 3 3 2 1 4 2 3 3 3 3 3 1 1 2 2 2 3 2 3 3 4 4 3 2 2 3 4 5 5 7 8 10 10 11 12 12 13 15 14
5 7 5 3 1 4 7 9 4 3 5 4 5 4 3 3 2 2 3 4 3 0 3 3 3 5 3 3 2 3 3 5 6 7 7 9 10 11 10 11 11 12 12 12
6 4 6 5 5 4 4 3 5 4 4 7 5 4 2 2 2 1 3 2 2 3 4 1 3 4 3 3 3 3 4 5 7 6 6 8 9 10 10 9 9 10 11 12
5 4 4 2 3 4 4 6 5 3 4 4 4 3 1 2 3 1 2 3 4 3 1 3 3 3 3 3 3 4 4 5 5 6 5 6 7 8 9 8 8 9 10 11
5 5 4 5 7 5 4 6 6 2 3 2 1 3 2 2 1 3 4 2 3 3 2 3 1 1 2 3 3 3 3 4 4 5 5 6 5 6 8 8 6 8 9 11
5 3 5 5 7 6 5 5 4 1 2 2 1 3 2 2 2 2 1 1 2 3 2 2 2 3 5 3 3 3 3 4 4 4 4 4 5 5 5 8 9 8 7 8
Wind_Direction
260 270 283 312 333 335 333 331 310 4 331 27 28 46 18 353 7 328 352 303 328 333 333 306 305 314 353 9 316 301 17 301 277 272 114 280 274 268 262 252 204 236 296 285
247 253 252 261 335 8 322 333 299 3 310 41 56 117 105 349 314 342 336 355 0 1 309 306 285 312 49 307 295 315 49 235 296 231 177 165 232 226 244 270 284 257 268 292
232 233 221 206 239 1 305 310 330 32 57 34 346 344 122 122 176 256 256 295 255 286 265 218 289 287 322 323 288 353 301 260 250 269 305 319 283 237 231 243 258 266 251 279
221 222 203 190 189 164 289 12 66 25 335 90 348 310 351 223 229 235 242 199 244 261 280 286 257 302 292 229 149 240 266 271 272 274 287 290 279 271 263 257 252 255 282 287
218 213 196 187 173 150 100 166 218 203 353 286 268 153 191 250 187 248 202 246 291 240 250 279 301 313 296 271 182 276 240 277 310 288 271 274 285 278 270 264 264 268 277 285
213 208 195 183 169 162 129 138 20 81 148 181 214 217 179 209 147 138 293 280 301 269 283 309 305 297 286 276 269 281 263 297 320 282 354 307 279 314 258 249 281 304 264 358
211 206 197 187 176 182 131 172 112 142 228 190 205 197 183 205 224 224 202 199 178 338 333 298 264 254 268 269 262 236 260 270 269 290 310 256 76 60 1 280 6 170 286 328
212 210 203 192 186 181 120 152 143 155 224 202 264 205 166 95 38 273 260 245 235 64 315 296 295 210 226 194 222 271 240 239 269 267 286 293 159 70 7 337 92 63 331 332
246 250 232 205 196 189 113 132 108 144 134 224 78 136 169 180 193 264 224 110 127 189 271 254 267 279 344 271 172 68 191 226 227 225 275 285 68 55 343 274 236 46 343 328
264 271 271 247 206 181 126 131 157 116 175 167 144 187 170 172 141 256 43 167 191 207 187 209 220 250 44 252 249 176 159 194 222 232 259 269 56 347 315 255 54 344 334 322
250 248 263 275 214 167 127 104 157 142 127 173 191 187 152 144 169 179 145 174 181 187 221 222 206 235 169 264 237 196 199 197 199 210 237 254 16 194 300 11 328 333 334 324
257 254 250 244 186 163 127 118 123 39 87 72 350 22 5 35 83 147 192 350 105 65 232 242 274 228 204 248 270 210 243 255 259 241 347 82 47 348 82 1 333 328 325 324
260 249 241 230 165 164 133 123 142 92 115 128 203 188 158 168 321 340 183 156 118 176 28 337 241 243 221 236 227 261 202 237 251 323 127 333 317 124 354 352 332 324 324 318
268 249 238 175 158 157 134 137 162 92 128 216 116 107 116 339 238 93 46 112 96 108 165 234 243 246 190 267 346 272 26 181 244 258 258 330 88 158 357 336 331 325 321 314
255 233 204 153 146 133 83 65 77 45 286 123 114 133 74 37 185 171 150 143 138 159 181 220 232 251 252 213 286 247 174 262 234 318 31 341 340 349 340 334 325 324 322 322
245 221 151 144 141 129 98 102 221 269 44 112 121 67 40 54 111 156 176 186 213 203 250 256 248 37 272 274 277 93 116 155 28 14 350 314 304 318 348 326 322 325 325 322
216 150 142 143 142 76 78 129 110 144 213 96 127 165 99 113 120 110 140 169 152 231 227 228 261 198 222 259 257 124 144 340 358 27 338 302 3 327 322 322 324 324 321 324
158 135 128 113 103 100 54 37 63 70 91 20 141 103 191 191 172 159 174 164 184 207 258 195 236 149 233 257 105 117 131 319 47 86 353 306 306 308 321 329 333 330 330 332
122 119 112 81 37 76 108 130 82 75 57 180 193 179 159 188 102 84 136 252 214 82 242 231 217 198 226 19 138 160 77 26 351 333 323 327 326 324 330 335 336 330 326 326
126 86 66 86 8 121 146 21 51 20 353 18 195 70 121 206 180 137 135 238 268 247 212 124 232 241 89 77 76 85 67 36 357 345 336 334 325 328 327 325 323 321 322 324
67 89 72 100 122 165 64 112 213 213 219 163 95 309 128 205 181 152 218 172 160 242 136 251 220 210 107 112 92 66 45 17 341 312 302 308 309 313 318 321 323 325 326 328
124 109 106 116 92 80 143 154 212 233 205 135 160 119 83 123 275 145 173 194 169 250 120 253 246 93 111 112 75 44 11 354 336 331 322 323 320 322 317 318 322 325 327 324
74 61 93 163 103 179 194 185 190 202 156 169 169 142 115 148 105 97 190 187 214 165 213 235 46 111 101 64 29 16 0 344 342 342 341 338 331 327 326 319 323 325 321 329
83 112 119 218 172 220 178 130 107 95 137 157 140 109 116 93 145 129 202 88 240 227 231 191 109 99 64 23 11 346 346 348 342 345 339 333 332 327 326 329 326 323 329 333
95 83 111 171 91 74 104 101 114 100 128 131 112 89 145 110 124 220 129 166 230 240 14 72 99 68 2 343 349 342 340 346 336 332 328 316 317 325 321 331 321 332 334 339
80 70 103 129 109 123 125 111 105 93 122 116 80 130 152 129 128 175 208 219 234 93 77 80 95 20 348 329 323 321 311 316 309 313 305 308 310 311 310 308 322 334 337 338
72 85 52 90 82 112 99 97 85 79 194 125 166 175 106 119 140 202 241 327 65 97 107 80 34 323 326 329 309 321 327 319 314 308 298 300 311 298 309 340 341 333 337 332